Regional Weather Roundup
Issued by NWS

Home | Current Version | Previous Version | Graphics & Text | Print | Product List | Glossary Off
Versions: 1 2 3 4 5 6 7 8 9 10 11 12 13 14 15 16 17 18 19 20 21 22 23 24 25 26 27 28 29 30 31 32 33 34 35 36 37 38 39 40 41 42 43 44 45 46 47 48 49 50

000
ASUS43 KTOP 301808
RWRKS

WEATHER ROUNDUP FOR KANSAS
NATIONAL WEATHER SERVICE GOODLAND KS
100 PM CDT THU JUL 30 2015

NOTE:  "FAIR" INDICATES FEW OR NO CLOUDS BELOW 12,000 FEET WITH NO
SIGNIFICANT WEATHER AND/OR OBSTRUCTIONS TO VISIBILITY.

KSZ001>006-013>018-027>032-041>047-301900-
NORTHWEST KANSAS

CITY           SKY/WX    TMP DP  RH WIND       PRES   REMARKS
GOODLAND       SUNNY     84  62  47 S12       30.29F
6HR MIN TEMP:  57; 6HR MAX TEMP:  84;

HAYS           MOSUNNY   81  64  57 SE9       30.24F
HILL CITY      PTSUNNY   82  66  58 S8        30.25F
6HR MIN TEMP:  68; 6HR MAX TEMP:  83;

RUSSELL        PTSUNNY   80  68  66 SE6       30.23F
6HR MIN TEMP:  65; 6HR MAX TEMP:  82;

$$

KSZ061>065-074>080-084>089-301900-
SOUTHWEST KANSAS

CITY           SKY/WX    TMP DP  RH WIND       PRES   REMARKS
DODGE CITY     MOSUNNY   80  66  62 E6        30.27F
6HR MIN TEMP:  68; 6HR MAX TEMP:  80;

ELKHART          N/A    N/A N/A N/A MISG        N/A
GARDEN CITY    MOSUNNY   79  68  69 SE12      30.28F
6HR MIN TEMP:  66; 6HR MAX TEMP:  79;

GREAT BEND     CLOUDY    79  68  69 E3        30.24F
LIBERAL        CLOUDY    79  68  69 SE6       30.28F
PRATT          MOSUNNY   77  66  69 SE6       30.26F
$$

KSZ066>073-081>083-090>101-301900-
SOUTHEAST KANSAS

CITY           SKY/WX    TMP DP  RH WIND       PRES   REMARKS
CHANUTE        PTSUNNY   84  60  44 CALM      30.22R
6HR MIN TEMP:  73; 6HR MAX TEMP:  86;

COFFEYVILLE    CLOUDY    78  67  68 N14G24    30.21R
6HR MIN TEMP:  76; 6HR MAX TEMP:  88;

HUTCHINSON     MOSUNNY   80  67  64 S6        30.24F
6HR MIN TEMP:  70; 6HR MAX TEMP:  80; 6HR PCP:  0.39;

MEDICINE LODGE   N/A     77  69  76 E6        30.25F
NEWTON         PTSUNNY   70  64  83 SE6       30.27R
PARSONS        CLOUDY    79  68  69 W9        30.24R THUNDER
6HR MIN TEMP:  75; 6HR MAX TEMP:  86;

WICHITA INTL   LGT RAIN  76  68  76 SE6       30.22S
6HR MIN TEMP:  70; 6HR MAX TEMP:  76; 6HR PCP:  1.53;

WICHITA JABRA  CLOUDY    72  72 100 NE5       30.22F
6HR MIN TEMP:  68; 6HR MAX TEMP:  73; 6HR PCP:  1.14;

WICHITA MCCONL PTSUNNY   73  69  86 N5        30.22S
WINFIELD       CLOUDY    72  70  93 NE7       30.22F
6HR MIN TEMP:  69; 6HR MAX TEMP:  74; 6HR PCP:  0.99;

$$

KSZ007>012-019>026-033>040-048>060-102>105-301900-
NORTHEAST KANSAS

CITY           SKY/WX    TMP DP  RH WIND       PRES   REMARKS
CONCORDIA      SUNNY     82  64  54 S12       30.23F
6HR MIN TEMP:  61; 6HR MAX TEMP:  83;

EMPORIA        CLOUDY    73  68  84 VRB5      30.25R
6HR MIN TEMP:  70; 6HR MAX TEMP:  74;

LAWRENCE       CLOUDY    83  63  50 S3        30.22F
6HR MIN TEMP:  62; 6HR MAX TEMP:  84;

MANHATTAN      SUNNY     84  63  49 SW8       30.22F HAZE
6HR MIN TEMP:  66; 6HR MAX TEMP:  84;

MARYSVILLE     SUNNY     86  59  39 SW9       30.23F
OLATHE IND     CLOUDY    83  54  36 SE5       30.23F
6HR MIN TEMP:  67; 6HR MAX TEMP:  83;

OLATHE EXE     CLOUDY    82  52  35 S5        30.22F
6HR MIN TEMP:  67; 6HR MAX TEMP:  83;

SALINA         SUNNY     82  68  62 S6        30.23F
6HR MIN TEMP:  69; 6HR MAX TEMP:  83;

TOPEKA BILLARD PTSUNNY   83  59  44 S5        30.22F
6HR MIN TEMP:  65; 6HR MAX TEMP:  83;

TOPEKA FORBES  PTSUNNY   82  64  54 S3        30.23F
6HR MIN TEMP:  65; 6HR MAX TEMP:  83;

$$



USA.gov is the U.S. government's official web portal to all federal, state and local government web resources and services.